Погода в Газипуре

Бангладеш     23°59′49″N   90°25′03″E
темп.,
°C
ветер,
м/с
пор.,
м/с
влажн.,
%
обл.,
%
осадки,
мм/ч
давл.,
гПа
погр.,
м
23 апреля, пт
пт2300:00+26с11725 3.8 100811
03:00+25ссз22740 0.0 100728
06:00+24ссв117766 0.0 100818
09:00+30ссз114949 0.0 1011651
12:00+36сз352230 0.0 10092927
15:00+38зсз451598 0.0 10053133
18:00+34зсз2219100 0.0 100515
21:00+30всв3325100 0.0 100736
24 апреля, сб
сб2400:00+27вюв343571 0.0 100649
03:00+26ююв34384 0.0 100556
06:00+26ююв34380 0.0 100647
09:00+34ююз34231 0.0 1008755
12:00+39юз26130 0.0 10072687
15:00+41сз3590 0.0 10034140
18:00+36юв11152 0.0 100312
21:00+31вюв4825100 0.0 1005111
25 апреля, вс
вс2500:00+28ююз34314 0.0 100548
03:00+27ююз48457 0.0 1004144
06:00+26юз23585 0.0 100661
09:00+35ююз34321 0.0 1009824
12:00+40ююз45182 0.0 10062456
15:00+42зюз461221 0.0 10034545
18:00+38ююз34164 0.0 100252
21:00+33ю71340100 0.0 1004404
26 апреля, пн
пн2600:00+30ююз3541100 0.0 100594
03:00+28ю5105265 0.0 1004291
06:00+26ююв487261 0.0 1007328
09:00+33ю5641100 0.0 10091055
12:00+39ююз562399 0.0 10061993
15:00+42ююз451615 0.0 10023511
18:00+37ю59265 0.0 1002263
21:00+33ююз6124119 0.0 1005480
27 апреля, вт
вт2700:00+29ююз510505 0.0 1005389
03:00+26ю24716 0.0 1006127
06:00+26ююв588210 0.0 1008437
09:00+33ю564716 0.0 10091023
12:00+38ю562788 0.0 10071741
15:00+41ю56222 0.0 10032602
18:00+37ю69290 0.0 1002339
21:00+33ю712390 0.0 1004520